Wind_Speed
47 46 46 45 47 47 46 47 48 49 51 50 53 54 52 48 43 40 39 39 40 39 39 38 35 39 46 49 54 58 64 67 67 65 67 67 51 36 27 32 34 34 35
48 49 46 47 47 48 49 51 51 51 52 53 56 54 46 42 38 38 38 39 38 40 38 35 39 43 49 52 58 63 66 67 66 67 66 54 36 28 29 31 34 34 34
48 47 49 49 49 51 51 52 52 52 53 55 55 50 42 38 37 37 37 38 40 38 36 39 43 47 53 57 60 65 66 65 65 64 60 37 32 32 32 34 34 35 35
49 51 52 52 51 53 52 53 53 52 53 53 49 43 37 36 35 35 37 39 39 38 40 43 47 52 56 60 62 63 64 64 63 61 44 33 34 35 35 35 36 36 37
51 53 51 51 52 52 52 52 51 51 50 46 42 37 34 33 35 36 37 39 39 41 44 47 52 56 60 62 61 62 65 63 62 52 34 34 37 38 37 37 37 38 38
53 48 49 50 49 50 49 48 52 49 43 41 36 33 33 35 36 38 39 39 42 43 47 52 58 60 63 62 62 62 63 62 57 41 32 36 40 39 37 38 39 40 40
45 43 43 44 47 48 50 52 50 41 38 35 30 31 35 36 38 39 41 42 44 48 52 59 62 64 63 63 62 62 61 60 49 35 34 40 42 40 40 42 44 43 43
39 41 44 49 51 51 50 45 42 38 33 31 32 34 35 38 40 40 42 46 49 53 58 62 65 65 64 64 60 60 58 53 37 34 38 43 44 44 47 51 51 49 48
40 45 50 51 48 46 44 43 39 33 31 33 34 34 36 38 40 43 46 51 54 59 64 67 68 65 65 61 59 56 51 38 34 38 40 43 45 50 54 55 54 52 49
46 50 48 47 47 46 44 40 34 31 33 33 34 36 39 42 44 46 51 56 60 63 65 68 69 64 61 59 53 50 38 36 37 38 40 45 50 54 56 54 53 45 42
46 47 47 46 45 41 41 35 33 34 33 33 37 38 42 44 46 51 54 56 60 65 69 70 66 63 60 52 48 38 38 38 38 39 44 49 54 56 53 52 48 45 44
46 45 45 45 42 42 35 32 34 35 34 35 37 41 41 46 49 51 54 58 63 69 72 71 68 62 56 49 36 35 36 36 40 46 50 53 54 53 49 49 45 44 43
44 44 42 40 39 34 34 35 35 33 35 37 39 41 44 47 49 53 54 61 67 73 69 57 49 44 40 30 34 34 35 40 46 52 53 53 49 45 45 45 43 41 41
40 37 36 39 35 35 34 33 36 34 36 39 41 45 47 48 50 57 57 63 68 49 35 30 28 26 30 30 33 40 45 47 49 52 51 47 43 41 43 43 42 42 42
36 35 34 34 35 35 33 34 37 40 38 41 43 42 44 49 54 53 58 63 38 30 26 25 27 28 32 37 43 48 50 48 50 47 44 43 41 41 42 42 43 43 43
33 35 34 35 38 39 34 33 36 36 36 41 39 41 45 47 48 53 56 44 34 29 27 27 31 33 38 43 48 49 49 49 45 44 44 44 42 41 42 43 44 46 47
34 35 34 36 36 35 34 33 32 34 34 36 37 41 44 46 50 49 45 40 34 29 32 34 37 41 45 48 51 50 47 45 44 43 44 44 43 44 44 45 46 47 49
34 34 34 32 30 32 34 35 33 35 36 37 40 42 45 48 54 43 37 37 34 34 34 38 42 46 49 51 50 46 45 45 45 45 45 45 46 45 44 44 46 47 50
33 32 31 28 27 27 28 31 33 35 36 40 40 42 45 47 47 40 34 34 38 39 41 43 46 50 51 51 47 46 44 45 45 43 43 43 43 43 44 46 47 50 52
34 31 29 28 30 31 31 31 33 36 40 42 42 48 49 46 40 38 35 37 41 44 46 49 49 49 49 47 46 44 45 44 46 45 43 42 43 45 48 50 51 53 55
31 32 31 33 35 38 37 34 34 38 43 46 48 50 50 43 40 41 36 41 46 47 49 51 51 47 46 45 44 46 46 47 44 43 44 46 48 50 52 54 55 56 58
35 33 36 37 39 42 43 40 38 40 46 50 51 49 45 42 42 42 39 44 46 50 52 52 47 46 46 46 47 47 47 45 45 47 49 51 53 55 56 58 59 61 63
36 37 35 34 37 40 45 44 46 47 46 48 49 46 43 44 42 42 41 45 51 53 51 46 45 45 47 48 50 48 47 47 49 52 54 55 58 59 60 61 63 64 65
36 36 35 35 40 43 46 45 47 49 44 44 43 42 43 42 43 44 46 50 52 50 46 44 45 47 48 49 48 49 50 52 54 56 58 60 61 62 63 63 64 66 67
37 38 37 40 43 44 45 46 44 47 43 41 40 40 42 42 44 48 50 50 47 45 45 47 47 48 48 50 51 52 54 56 58 60 62 63 66 67 67 66 67 69 70
39 41 41 43 43 43 46 45 44 44 41 42 41 42 42 43 48 49 47 45 45 46 47 48 49 50 51 52 54 55 58 60 62 64 66 68 69 69 69 70 72 75 77
Wind_Direction
266 271 274 279 284 287 289 287 286 289 292 298 304 304 305 304 304 302 304 305 307 308 310 309 310 317 320 320 320 321 321 320 321 321 322 326 323 318 311 313 316 311 310
266 270 275 278 285 289 288 286 285 288 293 299 299 301 300 301 299 301 303 304 306 310 311 310 314 318 318 319 320 318 318 321 322 321 326 324 322 319 315 317 316 315 315
267 269 273 280 285 286 286 285 287 290 295 296 299 298 298 296 299 301 302 306 309 309 307 310 313 316 318 319 318 317 320 322 321 324 326 316 320 318 315 311 312 313 312
266 272 277 281 283 284 282 285 287 291 295 298 296 295 295 296 298 300 303 307 309 307 307 310 313 317 317 316 314 317 320 321 321 326 319 314 318 317 315 312 309 308 310
269 273 277 278 280 280 281 284 289 294 297 295 292 291 293 296 297 299 305 308 310 309 310 312 316 315 315 313 315 317 319 319 323 323 313 314 317 316 316 312 310 308 307
268 272 274 276 276 277 281 286 290 296 293 291 289 289 290 295 298 302 307 310 309 309 312 315 315 313 311 312 315 316 316 320 321 318 311 312 316 317 315 314 312 310 309
266 268 271 273 275 281 286 289 292 292 289 283 284 287 294 296 301 306 308 309 310 313 316 315 312 309 310 311 314 313 316 320 318 315 312 313 316 314 312 312 311 309 307
265 267 271 275 279 283 287 288 289 288 280 279 285 291 296 299 303 306 308 311 314 315 314 312 309 308 309 310 311 310 318 316 315 313 313 315 316 315 314 314 312 308 305
265 269 273 277 280 282 284 285 286 278 278 282 289 293 297 300 301 305 308 312 316 315 313 309 307 307 308 307 307 314 314 311 313 312 314 315 316 317 317 316 313 309 305
268 268 271 274 278 281 282 282 277 271 277 284 289 292 295 298 302 309 313 316 316 312 309 306 306 304 303 304 308 313 306 310 311 313 315 316 318 317 317 317 318 316 311
263 266 271 276 279 280 280 274 270 275 280 284 288 293 298 304 311 315 316 317 314 312 306 305 304 303 304 306 311 305 305 311 313 315 317 318 319 318 319 320 319 316 316
267 271 273 275 277 278 270 266 272 276 278 285 292 298 305 312 314 315 316 317 315 310 306 305 304 304 307 311 307 306 310 314 316 317 318 317 319 318 321 322 320 319 321
269 270 273 274 275 262 259 265 273 274 280 289 295 303 308 312 313 315 315 317 312 310 312 314 313 310 312 313 312 312 316 318 317 315 317 317 318 319 322 325 324 323 322
268 271 272 272 262 258 266 273 273 277 283 289 302 306 309 312 314 315 314 310 312 318 330 332 332 328 322 320 319 319 319 317 316 315 316 317 319 319 320 323 325 327 326
266 267 269 263 260 260 264 269 277 279 286 293 301 304 310 312 311 309 308 310 311 328 333 329 326 325 324 322 321 319 317 316 316 315 315 316 317 319 320 321 321 323 322
264 265 264 263 264 263 263 269 276 285 294 296 299 306 307 305 302 307 309 305 310 319 319 318 317 318 317 317 317 317 315 314 314 315 318 318 318 318 319 319 319 320 319
270 270 270 271 265 268 274 278 285 290 292 297 301 301 299 297 299 306 306 303 304 308 309 311 312 312 313 315 317 316 314 313 310 311 314 316 318 318 317 317 317 317 317
263 272 273 273 275 278 280 280 281 286 294 298 299 295 294 299 299 299 295 300 301 303 306 307 308 310 314 315 316 314 313 316 316 311 310 311 314 316 316 316 316 317 316
261 267 272 274 281 282 285 291 292 293 293 295 293 291 292 298 295 290 292 300 301 301 302 303 307 310 312 313 311 311 311 312 313 313 313 313 314 315 315 315 314 314 313
265 267 266 273 278 280 280 285 288 289 292 293 290 291 294 295 285 285 291 297 299 300 300 303 306 308 309 309 310 309 310 310 310 310 311 311 311 311 311 311 310 310 311
262 267 271 278 285 285 285 283 287 292 292 289 288 291 292 290 281 284 292 297 299 302 303 305 307 307 306 307 306 307 307 308 307 307 308 308 308 309 309 309 309 309 309
263 266 274 277 279 283 282 283 283 284 284 285 289 291 290 284 281 286 295 297 300 302 302 302 302 304 305 305 306 306 306 304 303 305 307 307 307 307 308 308 309 309 308
261 267 270 274 276 276 277 280 281 280 283 289 291 292 288 281 284 288 294 296 300 300 299 298 301 302 304 305 306 305 304 302 303 304 305 305 305 306 307 308 308 308 307
264 266 268 271 274 277 276 278 280 285 288 289 290 290 285 283 286 292 296 298 299 298 296 298 300 303 304 305 304 303 302 302 302 302 303 304 306 307 307 307 308 310 308
259 264 268 273 273 273 275 280 285 285 288 291 288 285 284 287 291 295 298 297 296 296 298 300 301 302 302 302 302 301 301 301 302 303 305 307 307 308 310 314 313 312 308
257 260 267 272 272 275 279 283 287 288 288 285 282 283 286 291 294 296 295 295 295 297 299 300 301 301 302 302 301 301 302 303 305 307 309 309 309 311 315 315 313 311 309
Height
5769 5769 5770 5769 5767 5766 5765 5763 5761 5758 5755 5751 5747 5742 5736 5731 5727 5721 5717 5713 5709 5705 5699 5695 5689 5686 5680 5673 5665 5658 5649 5638 5628 5621 5609 5599 5589 5582 5580 5577 5574 5570 5566
5760 5761 5760 5759 5759 5757 5755 5753 5751 5748 5744 5741 5736 5732 5726 5722 5718 5713 5709 5706 5702 5697 5693 5688 5683 5676 5670 5663 5655 5647 5637 5628 5619 5609 5601 5590 5582 5577 5574 5571 5567 5563 5559
5751 5750 5750 5751 5749 5748 5746 5744 5740 5737 5734 5730 5726 5722 5717 5713 5710 5706 5702 5699 5695 5691 5686 5680 5674 5667 5661 5652 5644 5635 5626 5617 5608 5599 5590 5582 5577 5572 5568 5564 5560 5556 5552
5739 5740 5741 5739 5738 5736 5734 5732 5729 5727 5723 5720 5716 5712 5708 5705 5702 5698 5695 5691 5687 5682 5677 5671 5664 5659 5651 5641 5633 5623 5615 5606 5598 5589 5581 5576 5571 5566 5562 5557 5553 5549 5545
5730 5731 5729 5729 5727 5725 5723 5721 5719 5716 5712 5709 5706 5702 5699 5697 5694 5690 5687 5684 5680 5675 5668 5662 5655 5648 5639 5630 5622 5613 5605 5596 5588 5580 5574 5570 5565 5559 5555 5550 5546 5542 5537
5718 5718 5718 5718 5715 5714 5712 5710 5709 5704 5702 5700 5696 5694 5691 5689 5686 5684 5680 5677 5673 5666 5659 5651 5645 5636 5627 5619 5611 5603 5594 5586 5579 5572 5567 5563 5557 5552 5547 5543 5537 5532 5528
5706 5708 5707 5706 5704 5703 5702 5700 5697 5693 5692 5690 5687 5686 5684 5682 5679 5676 5673 5669 5664 5657 5649 5642 5635 5624 5616 5608 5601 5592 5584 5577 5570 5565 5560 5555 5550 5545 5540 5534 5528 5522 5517
5695 5696 5696 5695 5693 5692 5690 5688 5685 5684 5682 5681 5680 5678 5677 5675 5672 5668 5665 5659 5653 5646 5639 5630 5622 5612 5604 5597 5592 5582 5575 5567 5562 5558 5553 5547 5542 5536 5531 5525 5518 5511 5505
5685 5685 5684 5682 5682 5680 5678 5676 5675 5675 5675 5674 5673 5671 5669 5666 5662 5659 5654 5649 5642 5634 5627 5617 5608 5600 5592 5585 5579 5572 5565 5558 5555 5550 5545 5539 5533 5527 5520 5513 5505 5498 5492
5673 5672 5671 5671 5670 5669 5667 5666 5666 5665 5665 5665 5664 5663 5660 5657 5653 5649 5645 5638 5631 5624 5615 5603 5593 5585 5578 5573 5567 5561 5555 5551 5547 5542 5537 5531 5524 5517 5509 5502 5493 5485 5479
5660 5660 5660 5659 5658 5658 5657 5657 5658 5658 5657 5656 5656 5654 5651 5647 5644 5639 5634 5628 5619 5610 5598 5588 5580 5571 5566 5560 5555 5551 5548 5543 5538 5533 5528 5523 5515 5506 5499 5491 5484 5477 5471
5649 5650 5649 5648 5647 5647 5647 5648 5649 5649 5649 5647 5647 5645 5642 5637 5633 5628 5621 5615 5607 5597 5585 5575 5566 5558 5553 5549 5546 5545 5542 5536 5528 5524 5519 5512 5505 5496 5489 5482 5474 5468 5462
5639 5638 5638 5638 5637 5638 5639 5640 5640 5640 5640 5639 5637 5635 5631 5626 5621 5616 5609 5601 5591 5582 5571 5559 5552 5547 5544 5542 5541 5537 5533 5529 5521 5514 5508 5501 5494 5487 5481 5474 5467 5460 5454
5626 5627 5628 5628 5629 5631 5632 5632 5632 5632 5631 5630 5628 5625 5621 5617 5611 5604 5597 5587 5579 5569 5562 5553 5547 5544 5541 5538 5534 5529 5525 5520 5513 5504 5497 5491 5485 5479 5472 5466 5459 5453 5447
5617 5618 5620 5620 5621 5622 5622 5622 5622 5623 5622 5619 5616 5614 5609 5605 5599 5593 5585 5576 5569 5560 5554 5550 5546 5541 5537 5532 5527 5522 5515 5508 5501 5495 5489 5482 5476 5470 5464 5458 5451 5445 5439
5609 5610 5610 5612 5613 5612 5612 5612 5613 5612 5610 5608 5605 5600 5598 5593 5586 5581 5574 5567 5560 5552 5549 5544 5541 5536 5531 5525 5519 5512 5505 5498 5491 5485 5479 5473 5467 5461 5456 5449 5442 5436 5430
5601 5601 5602 5602 5602 5602 5602 5601 5600 5600 5599 5597 5593 5589 5584 5580 5575 5568 5561 5558 5551 5545 5541 5537 5533 5528 5522 5516 5509 5502 5495 5489 5482 5475 5470 5464 5458 5452 5446 5440 5433 5427 5420
5590 5593 5593 5592 5592 5591 5592 5591 5590 5589 5588 5585 5582 5577 5571 5567 5565 5556 5551 5548 5543 5537 5531 5527 5523 5518 5511 5505 5498 5491 5485 5478 5472 5465 5459 5454 5448 5442 5436 5429 5423 5417 5409
5579 5581 5582 5582 5582 5582 5581 5580 5579 5578 5576 5573 5570 5565 5560 5555 5552 5547 5541 5538 5534 5529 5524 5519 5512 5506 5500 5494 5488 5481 5475 5469 5462 5455 5449 5443 5438 5432 5425 5419 5412 5405 5398
5569 5570 5570 5571 5572 5571 5570 5568 5567 5566 5564 5561 5557 5555 5549 5544 5540 5537 5531 5528 5524 5520 5515 5509 5502 5496 5489 5483 5476 5471 5465 5458 5452 5445 5439 5433 5426 5420 5414 5407 5400 5394 5386
5558 5559 5560 5560 5561 5561 5560 5556 5553 5553 5551 5549 5546 5541 5537 5533 5530 5528 5520 5517 5513 5508 5502 5497 5490 5483 5477 5472 5466 5460 5454 5447 5440 5434 5428 5422 5415 5408 5401 5394 5387 5379 5371
5546 5548 5548 5548 5549 5550 5550 5546 5541 5539 5538 5536 5532 5529 5525 5522 5518 5516 5509 5505 5501 5496 5490 5485 5478 5471 5465 5460 5454 5448 5442 5436 5429 5423 5416 5409 5402 5395 5387 5380 5372 5364 5356
5535 5536 5536 5535 5537 5537 5538 5534 5531 5527 5524 5523 5521 5517 5514 5512 5507 5504 5496 5493 5489 5484 5478 5472 5466 5459 5454 5448 5442 5436 5430 5423 5417 5410 5404 5396 5389 5381 5373 5365 5357 5347 5338
5523 5524 5525 5524 5526 5525 5524 5521 5519 5518 5513 5510 5507 5505 5503 5499 5495 5490 5485 5480 5475 5470 5466 5460 5454 5448 5442 5436 5430 5423 5417 5411 5404 5397 5390 5382 5374 5366 5357 5348 5339 5330 5320
5512 5514 5513 5514 5514 5513 5512 5510 5507 5505 5501 5497 5495 5493 5490 5486 5482 5477 5471 5467 5463 5459 5454 5448 5442 5436 5430 5423 5417 5411 5404 5397 5389 5382 5375 5367 5358 5349 5341 5331 5321 5311 5301
5501 5502 5503 5503 5502 5500 5499 5497 5494 5492 5488 5486 5483 5480 5476 5473 5469 5464 5459 5455 5452 5447 5442 5436 5430 5424 5418 5411 5405 5398 5391 5383 5375 5368 5360 5350 5341 5332 5321 5311 5301 5291 5280